Year,Month,Day,Hour,Minute,Value (Times are PST for temperature in C)
2008,09,30,00,00,15.70
2008,09,30,00,01,15.70
2008,09,30,00,02,15.80
2008,09,30,00,03,15.80
2008,09,30,00,04,15.90
2008,09,30,00,05,16.00
2008,09,30,00,06,16.00
2008,09,30,00,07,16.10
2008,09,30,00,08,16.20
2008,09,30,00,09,16.20
2008,09,30,00,10,16.30
2008,09,30,00,11,16.40
2008,09,30,00,12,16.40
2008,09,30,00,13,16.40
2008,09,30,00,14,16.50
2008,09,30,00,15,16.50
2008,09,30,00,16,16.50
2008,09,30,00,17,16.60
2008,09,30,00,18,16.60
2008,09,30,00,19,16.60
2008,09,30,00,20,16.60
2008,09,30,00,21,16.60
2008,09,30,00,22,16.60
2008,09,30,00,23,16.60
2008,09,30,00,24,16.60
2008,09,30,00,25,16.70
2008,09,30,00,26,16.70
2008,09,30,00,27,16.70
2008,09,30,00,28,16.70
2008,09,30,00,29,16.70
2008,09,30,00,30,16.70
2008,09,30,00,31,16.70
2008,09,30,00,32,16.70
2008,09,30,00,33,16.70
2008,09,30,00,34,16.80
2008,09,30,00,35,16.80
2008,09,30,00,36,16.80
2008,09,30,00,37,16.80
2008,09,30,00,38,16.80
2008,09,30,00,39,16.80
2008,09,30,00,40,16.80
2008,09,30,00,41,16.80
2008,09,30,00,42,16.80
2008,09,30,00,43,16.80
2008,09,30,00,44,16.80
2008,09,30,00,45,16.70
2008,09,30,00,46,16.70
2008,09,30,00,47,16.70
2008,09,30,00,48,16.60
2008,09,30,00,49,16.60
2008,09,30,00,50,16.60
2008,09,30,00,51,16.60
2008,09,30,00,52,16.60
2008,09,30,00,53,16.50
2008,09,30,00,54,16.50
2008,09,30,00,55,16.50
2008,09,30,00,56,16.50
2008,09,30,00,57,16.40
2008,09,30,00,58,16.40
2008,09,30,00,59,16.40
2008,09,30,01,00,16.40
2008,09,30,01,01,16.30
2008,09,30,01,02,16.30
2008,09,30,01,03,16.30
2008,09,30,01,04,16.30
2008,09,30,01,05,16.30
2008,09,30,01,06,16.30
2008,09,30,01,07,16.30
2008,09,30,01,08,16.20
2008,09,30,01,09,16.20
2008,09,30,01,10,16.20
2008,09,30,01,11,16.20
2008,09,30,01,12,16.20
2008,09,30,01,13,16.10
2008,09,30,01,14,16.10
2008,09,30,01,15,16.10
2008,09,30,01,16,16.10
2008,09,30,01,17,16.10
2008,09,30,01,18,16.10
2008,09,30,01,19,16.10
2008,09,30,01,20,16.10
2008,09,30,01,21,16.10
2008,09,30,01,22,16.00
2008,09,30,01,23,16.00
2008,09,30,01,24,16.00
2008,09,30,01,25,16.00
2008,09,30,01,26,15.90
2008,09,30,01,27,15.90
2008,09,30,01,28,15.90
2008,09,30,01,29,15.90
2008,09,30,01,30,15.80
2008,09,30,01,31,15.80
2008,09,30,01,32,15.80
2008,09,30,01,33,15.80
2008,09,30,01,34,15.80
2008,09,30,01,35,15.80
2008,09,30,01,36,15.80
2008,09,30,01,37,15.80
2008,09,30,01,38,15.80
2008,09,30,01,39,15.80
2008,09,30,01,40,15.80
2008,09,30,01,41,15.80
2008,09,30,01,42,15.80
2008,09,30,01,43,15.80
2008,09,30,01,44,15.80
2008,09,30,01,45,15.80
2008,09,30,01,46,15.80
2008,09,30,01,47,15.90
2008,09,30,01,48,15.90
2008,09,30,01,49,15.90
2008,09,30,01,50,15.90
2008,09,30,01,51,15.90
2008,09,30,01,52,15.90
2008,09,30,01,53,15.90
2008,09,30,01,54,15.90
2008,09,30,01,55,15.90
2008,09,30,01,56,16.00
2008,09,30,01,57,16.00
2008,09,30,01,58,16.10
2008,09,30,01,59,16.10
2008,09,30,02,00,16.10
2008,09,30,02,01,16.10
2008,09,30,02,02,16.10
2008,09,30,02,03,16.10
2008,09,30,02,04,16.20
2008,09,30,02,05,16.10
2008,09,30,02,06,16.10
2008,09,30,02,07,16.10
2008,09,30,02,08,16.10
2008,09,30,02,09,16.10
2008,09,30,02,10,16.10
2008,09,30,02,11,16.20
2008,09,30,02,12,16.20
2008,09,30,02,13,16.10
2008,09,30,02,14,16.20
2008,09,30,02,15,16.20
2008,09,30,02,16,16.20
2008,09,30,02,17,16.20
2008,09,30,02,18,16.20
2008,09,30,02,19,16.20
2008,09,30,02,20,16.20
2008,09,30,02,21,16.20
2008,09,30,02,22,16.20
2008,09,30,02,23,16.20
2008,09,30,02,24,16.10
2008,09,30,02,25,16.10
2008,09,30,02,26,16.10
2008,09,30,02,27,16.10
2008,09,30,02,28,16.10
2008,09,30,02,29,16.10
2008,09,30,02,30,16.10
2008,09,30,02,31,16.10
2008,09,30,02,32,16.10
2008,09,30,02,33,16.10
2008,09,30,02,34,16.10
2008,09,30,02,35,16.10
2008,09,30,02,36,16.10
2008,09,30,02,37,16.10
2008,09,30,02,38,16.00
2008,09,30,02,39,16.00
2008,09,30,02,40,16.00
2008,09,30,02,41,16.00
2008,09,30,02,42,15.90
2008,09,30,02,43,15.90
2008,09,30,02,44,15.90
2008,09,30,02,45,15.90
2008,09,30,02,46,15.90
2008,09,30,02,47,15.80
2008,09,30,02,48,15.80
2008,09,30,02,49,15.80
2008,09,30,02,50,15.80
2008,09,30,02,51,15.80
2008,09,30,02,52,15.70
2008,09,30,02,53,15.80
2008,09,30,02,54,15.80
2008,09,30,02,55,15.80
2008,09,30,02,56,15.80
2008,09,30,02,57,15.80
2008,09,30,02,58,15.80
2008,09,30,02,59,15.80
2008,09,30,03,00,15.80
2008,09,30,03,01,15.80
2008,09,30,03,02,15.80
2008,09,30,03,03,15.80
2008,09,30,03,04,15.80
2008,09,30,03,05,15.80
2008,09,30,03,06,15.80
2008,09,30,03,07,15.80
2008,09,30,03,08,15.80
2008,09,30,03,09,15.70
2008,09,30,03,10,15.70
2008,09,30,03,11,15.60
2008,09,30,03,12,15.60
2008,09,30,03,13,15.60
2008,09,30,03,14,15.60
2008,09,30,03,15,15.50
2008,09,30,03,16,15.50
2008,09,30,03,17,15.50
2008,09,30,03,18,15.50
2008,09,30,03,19,15.50
2008,09,30,03,20,15.50
2008,09,30,03,21,15.50
2008,09,30,03,22,15.50
2008,09,30,03,23,15.50
2008,09,30,03,24,15.40
2008,09,30,03,25,15.40
2008,09,30,03,26,15.40
2008,09,30,03,27,15.40
2008,09,30,03,28,15.40
2008,09,30,03,29,15.30
2008,09,30,03,30,15.30
2008,09,30,03,31,15.30
2008,09,30,03,32,15.30
2008,09,30,03,33,15.30
2008,09,30,03,34,15.20
2008,09,30,03,35,15.10
2008,09,30,03,36,15.00
2008,09,30,03,37,15.00
2008,09,30,03,38,15.00
2008,09,30,03,39,15.00
2008,09,30,03,40,15.00
2008,09,30,03,41,15.00
2008,09,30,03,42,15.00
2008,09,30,03,43,15.00
2008,09,30,03,44,15.00
2008,09,30,03,45,15.00
2008,09,30,03,46,15.00
2008,09,30,03,47,15.00
2008,09,30,03,48,15.00
2008,09,30,03,49,15.00
2008,09,30,03,50,15.00
2008,09,30,03,51,15.00
2008,09,30,03,52,15.00
2008,09,30,03,53,15.00
2008,09,30,03,54,15.00
2008,09,30,03,55,15.00
2008,09,30,03,56,15.00
2008,09,30,03,57,15.00
2008,09,30,03,58,15.00
2008,09,30,03,59,15.00
2008,09,30,04,00,15.00
2008,09,30,04,01,15.00
2008,09,30,04,02,15.00
2008,09,30,04,03,15.00
2008,09,30,04,04,15.00
2008,09,30,04,05,15.00
2008,09,30,04,06,15.00
2008,09,30,04,07,15.00
2008,09,30,04,08,15.00
2008,09,30,04,09,15.00
2008,09,30,04,10,15.00
2008,09,30,04,11,15.00
2008,09,30,04,12,15.00
2008,09,30,04,13,15.00
2008,09,30,04,14,15.00
2008,09,30,04,15,15.10
2008,09,30,04,16,15.10
2008,09,30,04,17,15.10
2008,09,30,04,18,15.20
2008,09,30,04,19,15.20
2008,09,30,04,20,15.30
2008,09,30,04,21,15.30
2008,09,30,04,22,15.30
2008,09,30,04,23,15.30
2008,09,30,04,24,15.30
2008,09,30,04,25,15.30
2008,09,30,04,26,15.30
2008,09,30,04,27,15.30
2008,09,30,04,28,15.30
2008,09,30,04,29,15.30
2008,09,30,04,30,15.20
2008,09,30,04,31,15.20
2008,09,30,04,32,15.20
2008,09,30,04,33,15.10
2008,09,30,04,34,15.00
2008,09,30,04,35,15.00
2008,09,30,04,36,15.00
2008,09,30,04,37,15.00
2008,09,30,04,38,15.00
2008,09,30,04,39,15.00
2008,09,30,04,40,15.00
2008,09,30,04,41,15.00
2008,09,30,04,42,15.00
2008,09,30,04,43,15.00
2008,09,30,04,44,15.00
2008,09,30,04,45,15.00
2008,09,30,04,46,15.00
2008,09,30,04,47,15.00
2008,09,30,04,48,15.00
2008,09,30,04,49,15.00
2008,09,30,04,50,15.00
2008,09,30,04,51,15.00
2008,09,30,04,52,15.00
2008,09,30,04,53,15.00
2008,09,30,04,54,15.00
2008,09,30,04,55,15.00
2008,09,30,04,56,15.00
2008,09,30,04,57,15.00
2008,09,30,04,58,15.00
2008,09,30,04,59,15.00
2008,09,30,05,00,15.00
2008,09,30,05,01,15.00
2008,09,30,05,02,15.00
2008,09,30,05,03,15.00
2008,09,30,05,04,15.00
2008,09,30,05,05,15.00
2008,09,30,05,06,14.90
2008,09,30,05,07,14.90
2008,09,30,05,08,14.80
2008,09,30,05,09,14.80
2008,09,30,05,10,14.70
2008,09,30,05,11,14.70
2008,09,30,05,12,14.60
2008,09,30,05,13,14.50
2008,09,30,05,14,14.50
2008,09,30,05,15,14.40
2008,09,30,05,16,14.40
2008,09,30,05,17,14.30
2008,09,30,05,18,14.20
2008,09,30,05,19,14.20
2008,09,30,05,20,14.20
2008,09,30,05,21,14.10
2008,09,30,05,22,14.10
2008,09,30,05,23,14.10
2008,09,30,05,24,14.10
2008,09,30,05,25,14.20
2008,09,30,05,26,14.20
2008,09,30,05,27,14.20
2008,09,30,05,28,14.30
2008,09,30,05,29,14.30
2008,09,30,05,30,14.40
2008,09,30,05,31,14.40
2008,09,30,05,32,14.50
2008,09,30,05,33,14.50
2008,09,30,05,34,14.60
2008,09,30,05,35,14.60
2008,09,30,05,36,14.60
2008,09,30,05,37,14.60
2008,09,30,05,38,14.60
2008,09,30,05,39,14.60
2008,09,30,05,40,14.60
2008,09,30,05,41,14.60
2008,09,30,05,42,14.50
2008,09,30,05,43,14.50
2008,09,30,05,44,14.60
2008,09,30,05,45,14.60
2008,09,30,05,46,14.60
2008,09,30,05,47,14.60
2008,09,30,05,48,14.50
2008,09,30,05,49,14.50
2008,09,30,05,50,14.50
2008,09,30,05,51,14.50
2008,09,30,05,52,14.50
2008,09,30,05,53,14.50
2008,09,30,05,54,14.50
2008,09,30,05,55,14.50
2008,09,30,05,56,14.50
2008,09,30,05,57,14.60
2008,09,30,05,58,14.60
2008,09,30,05,59,14.60
2008,09,30,06,00,14.60
2008,09,30,06,01,14.70
2008,09,30,06,02,14.70
2008,09,30,06,03,14.70
2008,09,30,06,04,14.70
2008,09,30,06,05,14.80
2008,09,30,06,06,14.80
2008,09,30,06,07,14.80
2008,09,30,06,08,14.80
2008,09,30,06,09,14.90
2008,09,30,06,10,14.90
2008,09,30,06,11,14.90
2008,09,30,06,12,14.90
2008,09,30,06,13,14.90
2008,09,30,06,14,14.80
2008,09,30,06,15,14.80
2008,09,30,06,16,14.80
2008,09,30,06,17,14.80
2008,09,30,06,18,14.80
2008,09,30,06,19,14.80
2008,09,30,06,20,14.80
2008,09,30,06,21,14.80
2008,09,30,06,22,14.80
2008,09,30,06,23,14.80
2008,09,30,06,24,14.80
2008,09,30,06,25,14.70
2008,09,30,06,26,14.70
2008,09,30,06,27,14.70
2008,09,30,06,28,14.70
2008,09,30,06,29,14.70
2008,09,30,06,30,14.60
2008,09,30,06,31,14.60
2008,09,30,06,32,14.60
2008,09,30,06,33,14.50
2008,09,30,06,34,14.50
2008,09,30,06,35,14.40
2008,09,30,06,36,14.30
2008,09,30,06,37,14.20
2008,09,30,06,38,14.20
2008,09,30,06,39,14.10
2008,09,30,06,40,14.10
2008,09,30,06,41,14.00
2008,09,30,06,42,13.90
2008,09,30,06,43,13.90
2008,09,30,06,44,13.90
2008,09,30,06,45,13.90
2008,09,30,06,46,13.90
2008,09,30,06,47,13.90
2008,09,30,06,48,13.90
2008,09,30,06,49,13.90
2008,09,30,06,50,13.90
2008,09,30,06,51,13.90
2008,09,30,06,52,13.90
2008,09,30,06,53,13.90
2008,09,30,06,54,13.90
2008,09,30,06,55,13.90
2008,09,30,06,56,13.90
2008,09,30,06,57,13.90
2008,09,30,06,58,13.90
2008,09,30,06,59,13.90
2008,09,30,07,00,13.90
2008,09,30,07,01,13.90
2008,09,30,07,02,13.90
2008,09,30,07,03,13.80
2008,09,30,07,04,13.80
2008,09,30,07,05,13.80
2008,09,30,07,06,13.80
2008,09,30,07,07,13.80
2008,09,30,07,08,13.70
2008,09,30,07,09,13.70
2008,09,30,07,10,13.70
2008,09,30,07,11,13.60
2008,09,30,07,12,13.60
2008,09,30,07,13,13.60
2008,09,30,07,14,13.60
2008,09,30,07,15,13.60
2008,09,30,07,16,13.60
2008,09,30,07,17,13.60
2008,09,30,07,18,13.50
2008,09,30,07,19,13.50
2008,09,30,07,20,13.50
2008,09,30,07,21,13.50
2008,09,30,07,22,13.60
2008,09,30,07,23,13.60
2008,09,30,07,24,13.60
2008,09,30,07,25,13.60
2008,09,30,07,26,13.60
2008,09,30,07,27,13.60
2008,09,30,07,28,13.50
2008,09,30,07,29,13.50
2008,09,30,07,30,13.50
2008,09,30,07,31,13.50
2008,09,30,07,32,13.40
2008,09,30,07,33,13.40
2008,09,30,07,34,13.40
2008,09,30,07,35,13.40
2008,09,30,07,36,13.40
2008,09,30,07,37,13.30
2008,09,30,07,38,13.30
2008,09,30,07,39,13.30
2008,09,30,07,40,13.30
2008,09,30,07,41,13.40
2008,09,30,07,42,13.40
2008,09,30,07,43,13.40
2008,09,30,07,44,13.40
2008,09,30,07,45,13.40
2008,09,30,07,46,13.40
2008,09,30,07,47,13.50
2008,09,30,07,48,13.50
2008,09,30,07,49,13.50
2008,09,30,07,50,13.50
2008,09,30,07,51,13.50
2008,09,30,07,52,13.60
2008,09,30,07,53,13.60
2008,09,30,07,54,13.60
2008,09,30,07,55,13.60
2008,09,30,07,56,13.60
2008,09,30,07,57,13.60
2008,09,30,07,58,13.50
2008,09,30,07,59,13.50
2008,09,30,08,00,13.50
2008,09,30,08,01,13.50
2008,09,30,08,02,13.50
2008,09,30,08,03,13.50
2008,09,30,08,04,13.50
2008,09,30,08,05,13.60
2008,09,30,08,06,13.60
2008,09,30,08,07,13.60
2008,09,30,08,08,13.70
2008,09,30,08,09,13.70
2008,09,30,08,10,13.70
2008,09,30,08,11,13.80
2008,09,30,08,12,13.80
2008,09,30,08,13,13.80
2008,09,30,08,14,13.90
2008,09,30,08,15,13.90
2008,09,30,08,16,13.90
2008,09,30,08,17,14.00
2008,09,30,08,18,14.00
2008,09,30,08,19,14.00
2008,09,30,08,20,14.00
2008,09,30,08,21,14.10
2008,09,30,08,22,14.10
2008,09,30,08,23,14.10
2008,09,30,08,24,14.20
2008,09,30,08,25,14.20
2008,09,30,08,26,14.20
2008,09,30,08,27,14.30
2008,09,30,08,28,14.30
2008,09,30,08,29,14.30
2008,09,30,08,30,14.30
2008,09,30,08,31,14.40
2008,09,30,08,32,14.40
2008,09,30,08,33,14.40
2008,09,30,08,34,14.50
2008,09,30,08,35,14.50
2008,09,30,08,36,14.60
2008,09,30,08,37,14.60
2008,09,30,08,38,14.70
2008,09,30,08,39,14.70
2008,09,30,08,40,14.70
2008,09,30,08,41,14.80
2008,09,30,08,42,14.80
2008,09,30,08,43,14.80
2008,09,30,08,44,14.90
2008,09,30,08,45,15.00
2008,09,30,08,46,15.00
2008,09,30,08,47,15.00
2008,09,30,08,48,15.00
2008,09,30,08,49,15.00
2008,09,30,08,50,15.10
2008,09,30,08,51,15.10
2008,09,30,08,52,15.20
2008,09,30,08,53,15.30
2008,09,30,08,54,15.40
2008,09,30,08,55,15.50
2008,09,30,08,56,15.60
2008,09,30,08,57,15.80
2008,09,30,08,58,15.90
2008,09,30,08,59,16.00
2008,09,30,09,00,16.10
2008,09,30,09,01,16.20
2008,09,30,09,02,16.30
2008,09,30,09,03,16.30
2008,09,30,09,04,16.40
2008,09,30,09,05,16.40
2008,09,30,09,06,16.50
2008,09,30,09,07,16.60
2008,09,30,09,08,16.70
2008,09,30,09,09,16.80
2008,09,30,09,10,16.90
2008,09,30,09,11,16.90
2008,09,30,09,12,17.00
2008,09,30,09,13,17.00
2008,09,30,09,14,17.10
2008,09,30,09,15,17.10
2008,09,30,09,16,17.10
2008,09,30,09,17,17.20
2008,09,30,09,18,17.20
2008,09,30,09,19,17.20
2008,09,30,09,20,17.30
2008,09,30,09,21,17.40
2008,09,30,09,22,17.40
2008,09,30,09,23,17.50
2008,09,30,09,24,17.60
2008,09,30,09,25,17.60
2008,09,30,09,26,17.70
2008,09,30,09,27,17.70
2008,09,30,09,28,17.70
2008,09,30,09,29,17.70
2008,09,30,09,30,17.70
2008,09,30,09,31,17.80
2008,09,30,09,32,17.80
2008,09,30,09,33,17.80
2008,09,30,09,34,17.90
2008,09,30,09,35,17.90
2008,09,30,09,36,18.00
2008,09,30,09,37,18.00
2008,09,30,09,38,18.10
2008,09,30,09,39,18.10
2008,09,30,09,40,18.10
2008,09,30,09,41,18.10
2008,09,30,09,42,18.10
2008,09,30,09,43,18.10
2008,09,30,09,44,18.10
2008,09,30,09,45,18.00
2008,09,30,09,46,18.00
2008,09,30,09,47,18.00
2008,09,30,09,48,18.00
2008,09,30,09,49,18.00
2008,09,30,09,50,18.10
2008,09,30,09,51,18.10
2008,09,30,09,52,18.10
2008,09,30,09,53,18.00
2008,09,30,09,54,18.00
2008,09,30,09,55,18.00
2008,09,30,09,56,18.00
2008,09,30,09,57,18.10
2008,09,30,09,58,18.10
2008,09,30,09,59,18.20
2008,09,30,10,00,18.20
2008,09,30,10,01,18.20
2008,09,30,10,02,18.30
2008,09,30,10,03,18.30
2008,09,30,10,04,18.30
2008,09,30,10,05,18.40
2008,09,30,10,06,18.40
2008,09,30,10,07,18.40
2008,09,30,10,08,18.50
2008,09,30,10,09,18.50
2008,09,30,10,10,18.50
2008,09,30,10,11,18.50
2008,09,30,10,12,18.50
2008,09,30,10,13,18.40
2008,09,30,10,14,18.40
2008,09,30,10,15,18.40
2008,09,30,10,16,18.40
2008,09,30,10,17,18.30
2008,09,30,10,18,18.30
2008,09,30,10,19,18.30
2008,09,30,10,20,18.40
2008,09,30,10,21,18.40
2008,09,30,10,22,18.40
2008,09,30,10,23,18.40
2008,09,30,10,24,18.40
2008,09,30,10,25,18.40
2008,09,30,10,26,18.40
2008,09,30,10,27,18.40
2008,09,30,10,28,18.40
2008,09,30,10,29,18.40
2008,09,30,10,30,18.40
2008,09,30,10,31,18.50
2008,09,30,10,32,18.50
2008,09,30,10,33,18.60
2008,09,30,10,34,18.60
2008,09,30,10,35,18.60
2008,09,30,10,36,18.70
2008,09,30,10,37,18.70
2008,09,30,10,38,18.80
2008,09,30,10,39,18.80
2008,09,30,10,40,18.90
2008,09,30,10,41,18.90
2008,09,30,10,42,18.90
2008,09,30,10,43,18.90
2008,09,30,10,44,19.00
2008,09,30,10,45,19.00
2008,09,30,10,46,19.10
2008,09,30,10,47,19.10
2008,09,30,10,48,19.20
2008,09,30,10,49,19.30
2008,09,30,10,50,19.30
2008,09,30,10,51,19.40
2008,09,30,10,52,19.40
2008,09,30,10,53,19.40
2008,09,30,10,54,19.40
2008,09,30,10,55,19.40
2008,09,30,10,56,19.40
2008,09,30,10,57,19.40
2008,09,30,10,58,19.40
2008,09,30,10,59,19.40
2008,09,30,11,00,19.40
2008,09,30,11,01,19.40
2008,09,30,11,02,19.40
2008,09,30,11,03,19.40
2008,09,30,11,04,19.50
2008,09,30,11,05,19.50
2008,09,30,11,06,19.50
2008,09,30,11,07,19.50
2008,09,30,11,08,19.50
2008,09,30,11,09,19.60
2008,09,30,11,10,19.60
2008,09,30,11,11,19.60
2008,09,30,11,12,19.70
2008,09,30,11,13,19.80
2008,09,30,11,14,19.80
2008,09,30,11,15,19.80
2008,09,30,11,16,19.80
2008,09,30,11,17,19.80
2008,09,30,11,18,19.80
2008,09,30,11,19,19.70
2008,09,30,11,20,19.70
2008,09,30,11,21,19.60
2008,09,30,11,22,19.50
2008,09,30,11,23,19.50
2008,09,30,11,24,19.40
2008,09,30,11,25,19.30
2008,09,30,11,26,19.20
2008,09,30,11,27,19.10
2008,09,30,11,28,19.10
2008,09,30,11,29,19.00
2008,09,30,11,30,19.00
2008,09,30,11,31,19.00
2008,09,30,11,32,19.10
2008,09,30,11,33,19.10
2008,09,30,11,34,19.10
2008,09,30,11,35,19.10
2008,09,30,11,36,19.20
2008,09,30,11,37,19.20
2008,09,30,11,38,19.30
2008,09,30,11,39,19.30
2008,09,30,11,40,19.30
2008,09,30,11,41,19.40
2008,09,30,11,42,19.50
2008,09,30,11,43,19.50
2008,09,30,11,44,19.60
2008,09,30,11,45,19.60
2008,09,30,11,46,19.60
2008,09,30,11,47,19.70
2008,09,30,11,48,19.70
2008,09,30,11,49,19.80
2008,09,30,11,50,19.80
2008,09,30,11,51,19.80
2008,09,30,11,52,19.90
2008,09,30,11,53,19.90
2008,09,30,11,54,19.90
2008,09,30,11,55,20.00
2008,09,30,11,56,20.10
2008,09,30,11,57,20.10
2008,09,30,11,58,20.20
2008,09,30,11,59,20.30
2008,09,30,12,00,20.30
2008,09,30,12,01,20.30
2008,09,30,12,02,20.30
2008,09,30,12,03,20.40
2008,09,30,12,04,20.40
2008,09,30,12,05,20.40
2008,09,30,12,06,20.40
2008,09,30,12,07,20.30
2008,09,30,12,08,20.30
2008,09,30,12,09,20.20
2008,09,30,12,10,20.20
2008,09,30,12,11,20.20
2008,09,30,12,12,20.20
2008,09,30,12,13,20.20
2008,09,30,12,14,20.20
2008,09,30,12,15,20.20
2008,09,30,12,16,20.30
2008,09,30,12,17,20.30
2008,09,30,12,18,20.30
2008,09,30,12,19,20.30
2008,09,30,12,20,20.30
2008,09,30,12,21,20.30
2008,09,30,12,22,20.30
2008,09,30,12,23,20.40
2008,09,30,12,24,20.40
2008,09,30,12,25,20.40
2008,09,30,12,26,20.40
2008,09,30,12,27,20.40
2008,09,30,12,28,20.40
2008,09,30,12,29,20.40
2008,09,30,12,30,20.50
2008,09,30,12,31,20.50
2008,09,30,12,32,20.60
2008,09,30,12,33,20.60
2008,09,30,12,34,20.60
2008,09,30,12,35,20.60
2008,09,30,12,36,20.50
2008,09,30,12,37,20.40
2008,09,30,12,38,20.40
2008,09,30,12,39,20.30
2008,09,30,12,40,20.20
2008,09,30,12,41,20.20
2008,09,30,12,42,20.10
2008,09,30,12,43,20.10
2008,09,30,12,44,20.00
2008,09,30,12,45,20.00
2008,09,30,12,46,20.00
2008,09,30,12,47,20.00
2008,09,30,12,48,20.00
2008,09,30,12,49,19.90
2008,09,30,12,50,19.70
2008,09,30,12,51,19.40
2008,09,30,12,52,19.30
2008,09,30,12,53,19.20
2008,09,30,12,54,19.20
2008,09,30,12,55,19.20
2008,09,30,12,56,19.20
2008,09,30,12,57,19.20
2008,09,30,12,58,19.00
2008,09,30,12,59,18.90
2008,09,30,13,00,18.90
2008,09,30,13,01,18.90
2008,09,30,13,02,19.00
2008,09,30,13,03,19.00
2008,09,30,13,04,19.10
2008,09,30,13,05,19.10
2008,09,30,13,06,19.00
2008,09,30,13,07,19.00
2008,09,30,13,08,18.90
2008,09,30,13,09,18.90
2008,09,30,13,10,18.90
2008,09,30,13,11,18.90
2008,09,30,13,12,18.90
2008,09,30,13,13,19.00
2008,09,30,13,14,19.00
2008,09,30,13,15,19.10
2008,09,30,13,16,19.10
2008,09,30,13,17,19.10
2008,09,30,13,18,19.10
2008,09,30,13,19,19.10
2008,09,30,13,20,19.10
2008,09,30,13,21,19.20
2008,09,30,13,22,19.20
2008,09,30,13,23,19.40
2008,09,30,13,24,19.50
2008,09,30,13,25,19.60
2008,09,30,13,26,19.70
2008,09,30,13,27,19.70
2008,09,30,13,28,19.80
2008,09,30,13,29,19.90
2008,09,30,13,30,19.90
2008,09,30,13,31,19.90
2008,09,30,13,32,19.90
2008,09,30,13,33,19.80
2008,09,30,13,34,19.80
2008,09,30,13,35,19.70
2008,09,30,13,36,19.70
2008,09,30,13,37,19.70
2008,09,30,13,38,19.60
2008,09,30,13,39,19.60
2008,09,30,13,40,19.50
2008,09,30,13,41,19.40
2008,09,30,13,42,19.30
2008,09,30,13,43,19.30
2008,09,30,13,44,19.20
2008,09,30,13,45,19.10
2008,09,30,13,46,19.10
2008,09,30,13,47,19.00
2008,09,30,13,48,18.90
2008,09,30,13,49,18.80
2008,09,30,13,50,18.80
2008,09,30,13,51,18.80
2008,09,30,13,52,18.80
2008,09,30,13,53,18.80
2008,09,30,13,54,18.70
2008,09,30,13,55,18.70
2008,09,30,13,56,18.70
2008,09,30,13,57,18.80
2008,09,30,13,58,18.80
2008,09,30,13,59,18.80
2008,09,30,14,00,18.80
2008,09,30,14,01,18.90
2008,09,30,14,02,18.90
2008,09,30,14,03,19.00
2008,09,30,14,04,19.10
2008,09,30,14,05,19.10
2008,09,30,14,06,19.20
2008,09,30,14,07,19.20
2008,09,30,14,08,19.30
2008,09,30,14,09,19.30
2008,09,30,14,10,19.30
2008,09,30,14,11,19.30
2008,09,30,14,12,19.20
2008,09,30,14,13,19.10
2008,09,30,14,14,19.00
2008,09,30,14,15,18.90
2008,09,30,14,16,18.80
2008,09,30,14,17,18.80
2008,09,30,14,18,18.80
2008,09,30,14,19,18.80
2008,09,30,14,20,18.80
2008,09,30,14,21,18.80
2008,09,30,14,22,18.70
2008,09,30,14,23,18.70
2008,09,30,14,24,18.70
2008,09,30,14,25,18.70
2008,09,30,14,26,18.70
2008,09,30,14,27,18.70
2008,09,30,14,28,18.80
2008,09,30,14,29,18.80
2008,09,30,14,30,18.90
2008,09,30,14,31,19.00
2008,09,30,14,32,19.00
2008,09,30,14,33,19.10
2008,09,30,14,34,19.10
2008,09,30,14,35,19.10
2008,09,30,14,36,19.20
2008,09,30,14,37,19.20
2008,09,30,14,38,19.30
2008,09,30,14,39,19.40
2008,09,30,14,40,19.50
2008,09,30,14,41,19.60
2008,09,30,14,42,19.70
2008,09,30,14,43,19.80
2008,09,30,14,44,19.90
2008,09,30,14,45,20.00
2008,09,30,14,46,20.00
2008,09,30,14,47,20.00
2008,09,30,14,48,19.90
2008,09,30,14,49,19.80
2008,09,30,14,50,19.70
2008,09,30,14,51,19.60
2008,09,30,14,52,19.60
2008,09,30,14,53,19.60
2008,09,30,14,54,19.50
2008,09,30,14,55,19.50
2008,09,30,14,56,19.50
2008,09,30,14,57,19.50
2008,09,30,14,58,19.50
2008,09,30,14,59,19.50
2008,09,30,15,00,19.50
2008,09,30,15,01,19.60
2008,09,30,15,02,19.60
2008,09,30,15,03,19.60
2008,09,30,15,04,19.60
2008,09,30,15,05,19.60
2008,09,30,15,06,19.50
2008,09,30,15,07,19.50
2008,09,30,15,08,19.50
2008,09,30,15,09,19.60
2008,09,30,15,10,19.60
2008,09,30,15,11,19.60
2008,09,30,15,12,19.60
2008,09,30,15,13,19.60
2008,09,30,15,14,19.70
2008,09,30,15,15,19.70
2008,09,30,15,16,19.80
2008,09,30,15,17,19.80
2008,09,30,15,18,19.80
2008,09,30,15,19,19.80
2008,09,30,15,20,19.80
2008,09,30,15,21,19.80
2008,09,30,15,22,19.80
2008,09,30,15,23,19.80
2008,09,30,15,24,19.90
2008,09,30,15,25,19.90
2008,09,30,15,26,19.90
2008,09,30,15,27,19.90
2008,09,30,15,28,19.90
2008,09,30,15,29,19.90
2008,09,30,15,30,19.90
2008,09,30,15,31,19.90
2008,09,30,15,32,19.90
2008,09,30,15,33,19.80
2008,09,30,15,34,19.70
2008,09,30,15,35,19.60
2008,09,30,15,36,19.50
2008,09,30,15,37,19.40
2008,09,30,15,38,19.40
2008,09,30,15,39,19.30
2008,09,30,15,40,19.20
2008,09,30,15,41,19.10
2008,09,30,15,42,19.10
2008,09,30,15,43,19.10
2008,09,30,15,44,19.10
2008,09,30,15,45,19.10
2008,09,30,15,46,19.10
2008,09,30,15,47,19.20
2008,09,30,15,48,19.20
2008,09,30,15,49,19.20
2008,09,30,15,50,19.20
2008,09,30,15,51,19.20
2008,09,30,15,52,19.20
2008,09,30,15,53,19.10
2008,09,30,15,54,19.10
2008,09,30,15,55,19.00
2008,09,30,15,56,18.90
2008,09,30,15,57,18.90
2008,09,30,15,58,18.80
2008,09,30,15,59,18.80
2008,09,30,16,00,18.80
2008,09,30,16,01,18.80
2008,09,30,16,02,18.70
2008,09,30,16,03,18.60
2008,09,30,16,04,18.50
2008,09,30,16,05,18.50
2008,09,30,16,06,18.40
2008,09,30,16,07,18.40
2008,09,30,16,08,18.30
2008,09,30,16,09,18.30
2008,09,30,16,10,18.20
2008,09,30,16,11,18.20
2008,09,30,16,12,18.20
2008,09,30,16,13,18.20
2008,09,30,16,14,18.10
2008,09,30,16,15,18.10
2008,09,30,16,16,18.10
2008,09,30,16,17,18.10
2008,09,30,16,18,18.10
2008,09,30,16,19,18.10
2008,09,30,16,20,18.10
2008,09,30,16,21,18.10
2008,09,30,16,22,18.20
2008,09,30,16,23,18.20
2008,09,30,16,24,18.20
2008,09,30,16,25,18.30
2008,09,30,16,26,18.40
2008,09,30,16,27,18.50
2008,09,30,16,28,18.50
2008,09,30,16,29,18.60
2008,09,30,16,30,18.70
2008,09,30,16,31,18.80
2008,09,30,16,32,18.80
2008,09,30,16,33,18.70
2008,09,30,16,34,18.60
2008,09,30,16,35,18.50
2008,09,30,16,36,18.30
2008,09,30,16,37,18.20
2008,09,30,16,38,18.10
2008,09,30,16,39,18.10
2008,09,30,16,40,18.00
2008,09,30,16,41,17.90
2008,09,30,16,42,17.90
2008,09,30,16,43,17.90
2008,09,30,16,44,17.90
2008,09,30,16,45,17.90
2008,09,30,16,46,17.80
2008,09,30,16,47,17.80
2008,09,30,16,48,17.80
2008,09,30,16,49,17.80
2008,09,30,16,50,17.80
2008,09,30,16,51,17.70
2008,09,30,16,52,17.70
2008,09,30,16,53,17.70
2008,09,30,16,54,17.70
2008,09,30,16,55,17.70
2008,09,30,16,56,17.70
2008,09,30,16,57,17.70
2008,09,30,16,58,17.60
2008,09,30,16,59,17.60
2008,09,30,17,00,17.60
2008,09,30,17,01,17.50
2008,09,30,17,02,17.50
2008,09,30,17,03,17.50
2008,09,30,17,04,17.50
2008,09,30,17,05,17.50
2008,09,30,17,06,17.50
2008,09,30,17,07,17.50
2008,09,30,17,08,17.60
2008,09,30,17,09,17.60
2008,09,30,17,10,17.60
2008,09,30,17,11,17.60
2008,09,30,17,12,17.60
2008,09,30,17,13,17.60
2008,09,30,17,14,17.60
2008,09,30,17,15,17.60
2008,09,30,17,16,17.60
2008,09,30,17,17,17.60
2008,09,30,17,18,17.60
2008,09,30,17,19,17.60